, CA

(GMT )
Point Mugu

Weather History for KNTD - September, 2012

Change the Weather History Date:

Tuesday, September 25, 2012

  Actual Average Record
Temperature  
Mean Temperature 64 °F -  
Max Temperature 69 °F 70 °F 96 °F (2016)
Min Temperature 55 °F 56 °F 46 °F (2005)
Degree Days  
Heating Degree Days 2    
Growing Degree Days 14 (Base 50)    
Moisture  
Dew Point 59 °F    
Average Humidity 90    
Maximum Humidity 100    
Minimum Humidity 73    
Precipitation  
Precipitation 0.00 in - - ()
Sea Level Pressure  
Sea Level Pressure 29.90 in    
Wind  
Wind Speed 4 mph (WNW)    
Max Wind Speed 10 mph    
Max Gust Speed -    
Visibility 6 miles    
Events      
Averages and records for this station are not official NWS values.
T = Trace of Precipitation, MM = Missing Value Source: NWS Daily Summary

Daily Weather History Graph

Daily Weather History Graph

Search for Another Location

Airport or City:

Trip Planner

Search our weather history database for the weather conditions in past years. The results will help you decide how hot, cold, wet, or windy it might be!

Date:

Astronomy

Sep. 25, 2012 Rise Set
Actual Time 6:47 AM PDT 6:48 PM PDT
Civil Twilight 6:22 AM PDT 7:13 PM PDT
Nautical Twilight 5:53 AM PDT 7:42 PM PDT
Astronomical Twilight 5:23 AM PDT 8:11 PM PDT
Moon 4:07 PM PDT (9/25) 2:24 AM PDT (9/25)
Length of Visible Light 12h 51m
Length of Day
12h 01m
Waxing Gibbous, 81% of the Moon is Illuminated
Sep 25
Waxing Gibbous
Sep 29
Full
Oct 8
Last Quarter
Oct 15
New
Oct 21
First Quarter

Hourly Weather History & Observations

Time (PDT) Temp. Dew Point Humidity Pressure Visibility Wind Dir Wind Speed Gust Speed Precip Events Conditions
12:54 AM 59.0 °F 59.0 °F 100% 29.93 in 7.0 mi NW 3.5 mph - N/A   Mostly Cloudy
1:08 AM 59.0 °F 59.0 °F 100% 29.92 in 7.0 mi Calm Calm - N/A   Scattered Clouds
1:44 AM 59.0 °F 57.2 °F 94% 29.92 in 7.0 mi Calm Calm - N/A   Mostly Cloudy
1:54 AM 59.0 °F 59.0 °F 100% 29.93 in 7.0 mi Calm Calm - N/A   Overcast
2:54 AM 60.1 °F 59.0 °F 96% 29.91 in 7.0 mi Calm Calm - N/A   Overcast
3:54 AM 60.1 °F 59.0 °F 96% 29.91 in 6.0 mi NW 5.8 mph - N/A   Overcast
4:54 AM 59.0 °F 57.9 °F 96% 29.90 in 5.0 mi Calm Calm - N/A   Overcast
5:54 AM 59.0 °F 57.9 °F 96% 29.91 in 5.0 mi ENE 4.6 mph - N/A   Overcast
6:54 AM 59.0 °F 57.9 °F 96% 29.92 in 4.0 mi NE 3.5 mph - N/A   Overcast
7:54 AM 60.1 °F 59.0 °F 96% 29.93 in 5.0 mi NE 3.5 mph - N/A   Overcast
8:54 AM 62.1 °F 59.0 °F 90% 29.94 in 5.0 mi NNW 3.5 mph - N/A   Overcast
9:16 AM 62.6 °F 59.0 °F 88% 29.93 in 3.0 mi Calm Calm - N/A   Overcast
9:54 AM 63.0 °F 59.0 °F 87% 29.94 in 3.0 mi Calm Calm - N/A   Overcast
10:42 AM 66.2 °F 60.8 °F 83% 29.92 in 7.0 mi Variable 5.8 mph - N/A   Overcast
10:54 AM 66.0 °F 60.1 °F 81% 29.93 in 6.0 mi South 8.1 mph - N/A   Haze
11:03 AM 66.2 °F 60.8 °F 83% 29.92 in 7.0 mi SW 9.2 mph - N/A   Haze
11:54 AM 68.0 °F 59.0 °F 73% 29.92 in 8.0 mi SSW 9.2 mph - N/A   Haze
12:54 PM 68.0 °F 60.1 °F 76% 29.91 in 5.0 mi WSW 8.1 mph - N/A   Haze
1:54 PM 68.0 °F 60.1 °F 76% 29.89 in 6.0 mi WSW 8.1 mph - N/A   Haze
2:54 PM 66.9 °F 59.0 °F 76% 29.88 in 6.0 mi West 10.4 mph - N/A   Haze
3:54 PM 68.0 °F 59.0 °F 73% 29.87 in 6.0 mi West 8.1 mph - N/A   Haze
4:54 PM 66.9 °F 60.1 °F 79% 29.86 in 6.0 mi West 9.2 mph - N/A   Haze
5:54 PM 64.9 °F 61.0 °F 87% 29.86 in 7.0 mi WNW 10.4 mph - N/A   Partly Cloudy
6:54 PM 62.1 °F 61.0 °F 96% 29.86 in 7.0 mi WNW 8.1 mph - N/A   Scattered Clouds
7:54 PM 61.0 °F 61.0 °F 100% 29.87 in 6.0 mi WNW 3.5 mph - N/A   Partly Cloudy
8:54 PM 60.1 °F 60.1 °F 100% 29.88 in 6.0 mi WNW 3.5 mph - N/A   Partly Cloudy
9:54 PM 60.1 °F 60.1 °F 100% 29.89 in 6.0 mi Calm Calm - N/A   Partly Cloudy
10:54 PM 59.0 °F 59.0 °F 100% 29.89 in 5.0 mi ENE 3.5 mph - N/A   Partly Cloudy
11:54 PM 55.9 °F 55.9 °F 100% 29.89 in 5.0 mi Calm Calm - N/A   Clear